Regional Weather Roundup
Issued by NWS

Home | Current Version | Previous Version | Text Only | Print | Product List | Glossary On
Versions: 1 2 3 4 5 6 7 8 9 10 11 12 13 14 15 16 17 18 19 20 21 22 23 24 25 26 27 28 29 30 31 32 33 34 35 36 37 38 39 40 41 42 43 44 45 46 47 48 49 50
000
ASUS43 KMPX 041610
RWRMN
WEATHER ROUNDUP FOR MINNESOTA
NATIONAL WEATHER SERVICE TWIN CITIES/CHANHASSEN MN
1100 AM CDT MON MAY 04 2015


NOTE: "FAIR" INDICATES FEW OR NO CLOUDS BELOW 12,000 FEET WITH NO
SIGNIFICANT WEATHER AND/OR OBSTRUCTIONS TO VISIBILITY. N/A MEANS
CURRENT SKY AND/OR WEATHER CONDITIONS ARE NOT AVAILABLE.

MNZ060>063-068>070-041700-
   Twin Cities Metro

CITY           SKY/WX    TMP DP  RH WIND       PRES   REMARKS
TWIN CITIES    MOSUNNY   64  33  31 NE16G22   30.19R
ST PAUL        SUNNY     64  34  32 N10       30.19R
CRYSTAL        SUNNY     66  33  29 NE9       30.18R
LAKEVILLE      SUNNY     63  37  39 NE12      30.18R
EDEN PRAIRIE   SUNNY     64  35  34 NE10      30.18R
SOUTH ST PAUL  SUNNY     65  32  29 NE12      30.18R
LAKE ELMO      FAIR      63  36  36 N9G16     30.19R
$$
MNZ001>005-007-008-013>017-022>024-027-028-041700-
   Northwest Minnesota

CITY           SKY/WX    TMP DP  RH WIND       PRES   REMARKS
BEMIDJI        SUNNY     56  26  31 CALM      30.24R
HALLOCK        SUNNY     61  30  31 SW10      30.22R
ROSEAU         SUNNY     57  30  35 SW3       30.22S
WARROAD        SUNNY     54  39  58 NE5       30.23R
THIEF RVR FALL SUNNY     57  27  30 CALM      30.24R
CROOKSTON      SUNNY     61  34  36 NW3       30.23S
FOSSTON        SUNNY     61  27  27 CALM      30.24R
DETROIT LAKES  MOSUNNY   57  36  44 CALM      30.24R
MOORHEAD       MOSUNNY   61  30  31 CALM      30.23R
PARK RAPIDS    MOSUNNY   57  35  43 SE3       30.22R
MAHNOMEN       FAIR      58  34  40 NW3       30.23R
$$
MNZ006-009>011-018-025>026-041700-
   North Central Minnesota

CITY           SKY/WX    TMP DP  RH WIND       PRES   REMARKS
BAUDETTE       SUNNY     55  28  35 N6        30.22R
FLAG ISLAND    SUNNY     48  34  57 CALM      30.21S
INTL FALLS     SUNNY     57  28  33 N7        30.20R
WASKISH        SUNNY     55  39  54 SW3       30.23R
BIG FORK       SUNNY     57  25  28 N8        30.22R
LONGVILLE      MOSUNNY   57  36  44 NW10      30.23R
GRAND RAPIDS   SUNNY     55  27  33 NW12G18   30.23R
CRANE LAKE     SUNNY     54  30  40 NW6       30.22R
ORR            SUNNY     54  27  35 NW7       30.18R
COOK           SUNNY     55  28  35 NW9       30.21R
WALKER         FAIR      56  33  42 E3        30.23R
$$
MNZ012-019>021-037-041700-
   Northeast Minnesota

CITY           SKY/WX    TMP DP  RH WIND       PRES   REMARKS
DULUTH         SUNNY     59  29  31 NW12G18   30.17R
ELY            SUNNY     54  32  43 N6        30.18R
HIBBING        SUNNY     59  25  27 N14       30.20R
EVELETH        SUNNY     57  30  35 N12G18    30.21R
DULUTH HARBOR    N/A     57  37  47 N8        30.19R
TWO HARBORS    SUNNY     63  37  39 N8        30.15R
SILVER BAY     SUNNY     63  27  25 NW3G16    30.15R
GRAND MARAIS     N/A     45  35  68 S10       30.13R
G MARAIS ARPRT SUNNY     55  30  38 W8G18     30.14R
$$
MNZ029>031-032-039>041-046>048-054>057-064-041700-
   West Central Minnesota

CITY           SKY/WX    TMP DP  RH WIND       PRES   REMARKS
FERGUS FALLS   PTSUNNY   61  34  36 CALM      30.22S
WHEATON        MOSUNNY   61  34  36 CALM      30.23R
MORRIS         MOSUNNY   66  28  24 NE6       30.20R
ALEXANDRIA     MOSUNNY   62  32  32 N7        30.22R
ELBOW LAKE     FAIR      61  32  33 NE7       30.21R
WADENA         PTSUNNY   59  37  44 N5        30.22R
GLENWOOD       MOSUNNY   63  32  31 N7        30.21R
APPLETON       MOSUNNY   66  23  19 E7        30.19S
BENSON         MOSUNNY   66  25  20 E8        30.20R
ORTONVILLE     MOSUNNY   63  30  29 E5        30.20S
MADISON        MOSUNNY   64  34  32 NE8       30.19F
WILLMAR        FAIR      64  32  29 NE10      30.21R
$$
MNZ033>034-036-042>043-049>051-058-059-041700-
   Central Minnesota

CITY           SKY/WX    TMP DP  RH WIND       PRES   REMARKS
ST CLOUD       SUNNY     64  32  30 NE8       30.19R
SAUK CENTRE    FAIR      61  34  35 NE5       30.21R
PAYNESVILLE    MOSUNNY   61  32  33 N12       30.20R
AITKIN         MOSUNNY   61  36  39 N7        30.20S
PINE RIVER     MOSUNNY   57  37  47 N8        30.25S
BRAINERD       MOSUNNY   60  35  39 N8        30.22R
STAPLES        MOSUNNY   57  34  41 E5        30.22R
LONG PRAIRIE   FAIR      61  34  36 N3        30.21R
LITTLE FALLS   SUNNY     61  32  33 N6        30.21R
LITCHFIELD     SUNNY     64  32  29 NE12      30.19S
BUFFALO        SUNNY     62  34  34 NE8       30.20R
MAPLE LAKE     SUNNY     65  39  37 NE9       30.20R
$$
MNZ037-044-045-052-053-041700-
   East Central Minnesota

CITY           SKY/WX    TMP DP  RH WIND       PRES   REMARKS
PRINCETON      SUNNY     64  34  32 N5        30.19R
MORA           MOSUNNY   61  32  33 N13G18    30.20R
CAMBRIDGE      MOSUNNY   64  43  45 N8        30.17R
RUSH CITY      MOSUNNY   62  32  33 N14       30.19R
MOOSE LAKE     SUNNY     61  34  36 NW8       30.18R
HINCKLEY       FAIR      61  32  33 N12G22    30.19R
CLOQUET        SUNNY     61  27  27 W13G21    30.18S
MCGREGOR       MOSUNNY   59  34  38 NW10G16   30.21S
$$
MNZ071>073-080-081-089-090-097-098-041700-
   Southwest Minnesota

CITY           SKY/WX    TMP DP  RH WIND       PRES   REMARKS
MONTEVIDEO     SUNNY     68  32  26 E6G16     30.19S
GRANITE FALLS  SUNNY     66  30  26 N12       30.20S
CANBY          MOSUNNY   63  32  31 CALM      30.20S
MARSHALL       SUNNY     64  30  27 E15       30.18R
REDWOOD FALLS  SUNNY     68  27  21 N14G20    30.17S
OLIVIA         SUNNY     63  30  29 NE12G20   30.18R
PIPESTONE      MOSUNNY   64  27  24 NE9G16    30.18R
WINDOM         MOSUNNY   66  27  22 NE16G23   30.18R
WORTHINGTON    MOSUNNY   64  30  27 E16G22    30.18R
JACKSON        MOSUNNY   66  27  22 E17G24    30.18R
TRACY          SUNNY     67  32  27 NE13G18   30.18S
SLAYTON        SUNNY     64  28  25 E16G22    30.19R
$$
MNZ065>067-074>077-082>085-091>093-041700-
   South Central Minnesota

CITY           SKY/WX    TMP DP  RH WIND       PRES   REMARKS
MANKATO        SUNNY     63  37  39 NE16      30.17S
NEW ULM        SUNNY     64  28  25 NE15G21   30.16S
ST JAMES       SUNNY     66  25  20 NE17G24   30.19R
FAIRMONT       MOSUNNY   66  30  26 NE20      30.17R
GLENCOE        SUNNY     65  36  34 NE8G18    30.18S
FARIBAULT      SUNNY     63  36  36 N12G22    30.18R
OWATONNA       SUNNY     63  36  36 N18G26    30.17R
WASECA         SUNNY     63  36  36 N17       30.18R
ALBERT LEA     MOSUNNY   63  37  39 NE18      30.16R
$$
MNZ078>079-086>088-094>096-041700-
   Southeast Minnesota

CITY           SKY/WX    TMP DP  RH WIND       PRES   REMARKS
ROCHESTER      SUNNY     62  38  40 NE15      30.17R
RED WING       SUNNY     64  30  27 NE12      30.16R
STANTON        SUNNY     64  36  35 NE14      30.16R
DODGE CENTER   SUNNY     63  37  39 NE15G21   30.16R
WINONA         SUNNY     66  36  32 NE8       30.16R
AUSTIN         MOSUNNY   61  37  41 NE13G21   30.16R
PRESTON        SUNNY     61  39  45 N14G20    30.16R
$$
ABBREVIATIONS USED IN REMARKS
   TC - TEMPERATURES IN CELSIUS
  WCI - WIND CHILL INDEX
   HX - HEAT INDEX
  VSB - VISIBILITY
$$



USA.gov is the U.S. government's official web portal to all federal, state and local government web resources and services.